Time,TemperatureF,DewpointF,PressureIn,WindDirection,WindDirectionDegrees,WindSpeedMPH,WindSpeedGustMPH,Humidity,HourlyPrecipIn,Conditions,Clouds,dailyrainin,SoftwareType,DateUTC
2013-08-01 01:33:00,64.0,62.0,29.87,North,0,0.0,0.0,94,0.00,,,0.51,,2013-08-01 05:33:00,
2013-08-01 01:43:00,64.0,62.0,29.87,North,0,0.0,0.0,94,0.00,,,0.51,,2013-08-01 05:43:00,
2013-08-01 01:53:00,64.0,62.0,29.87,North,0,0.0,0.0,94,0.00,,,0.51,,2013-08-01 05:53:00,
2013-08-01 02:02:00,64.0,62.0,29.87,North,0,0.0,0.0,94,0.00,,,0.51,,2013-08-01 06:02:00,
2013-08-01 02:12:00,64.0,62.0,29.87,North,0,0.0,0.0,94,0.00,,,0.51,,2013-08-01 06:12:00,
2013-08-01 02:23:00,64.0,62.0,29.87,North,0,0.0,0.0,94,0.00,,,0.51,,2013-08-01 06:23:00,
2013-08-01 02:33:00,64.0,62.0,29.87,North,0,0.0,0.0,94,0.00,,,0.51,,2013-08-01 06:33:00,
2013-08-01 02:43:00,64.0,62.0,29.87,North,0,0.0,0.0,94,0.00,,,0.51,,2013-08-01 06:43:00,
2013-08-01 08:48:00,61.0,60.0,29.88,West,262,0.0,0.0,96,0.00,,,0.51,,2013-08-01 12:48:00,
2013-08-01 08:58:00,61.0,60.0,29.89,SW,233,1.0,8.0,95,0.00,,,0.51,,2013-08-01 12:58:00,
2013-08-01 11:50:00,69.0,63.0,29.88,West,273,1.0,10.0,80,0.00,,,0.31,,2013-08-01 15:50:00,
2013-08-01 12:08:00,70.0,62.0,29.88,NW,314,1.0,7.0,75,0.00,,,0.29,,2013-08-01 16:08:00,
2013-08-01 12:30:00,72.0,62.0,29.88,South,181,2.0,7.0,71,0.00,,,0.29,,2013-08-01 16:30:00,
2013-08-01 12:42:00,73.0,63.0,29.88,WSW,247,0.0,8.0,71,0.00,,,0.27,,2013-08-01 16:42:00,
2013-08-01 12:49:00,74.0,62.0,29.88,SSE,164,0.0,7.0,67,0.00,,,0.27,,2013-08-01 16:49:00,
2013-08-01 13:15:00,74.0,61.0,29.88,West,262,0.0,12.0,63,0.00,,,0.27,,2013-08-01 17:15:00,
2013-08-01 13:21:00,74.0,61.0,29.87,WSW,257,4.0,13.0,63,0.00,,,0.26,,2013-08-01 17:21:00,
2013-08-01 13:33:00,74.0,60.0,29.87,NW,304,1.0,14.0,61,0.00,,,0.26,,2013-08-01 17:33:00,
2013-08-01 13:44:00,74.0,60.0,29.87,WNW,285,0.0,7.0,61,0.00,,,0.26,,2013-08-01 17:44:00,
2013-08-01 13:53:00,74.0,60.0,29.87,North,7,1.0,7.0,61,0.00,,,0.26,,2013-08-01 17:53:00,
2013-08-01 14:01:00,76.0,58.0,29.86,West,261,8.0,20.0,53,0.00,,,0.24,,2013-08-01 18:01:00,
2013-08-01 14:15:00,77.0,57.0,29.86,NNW,341,3.0,20.0,51,0.00,,,0.24,,2013-08-01 18:15:00,
2013-08-01 14:43:00,74.0,56.0,29.86,NNW,343,7.0,16.0,54,0.00,,,0.20,,2013-08-01 18:43:00,
2013-08-01 14:53:00,76.0,56.0,29.86,ENE,71,7.0,20.0,50,0.00,,,0.19,,2013-08-01 18:53:00,
2013-08-01 16:00:00,78.0,55.0,29.85,NE,43,5.0,16.0,45,0.00,,,0.12,,2013-08-01 20:00:00,
2013-08-01 16:39:00,78.0,56.0,29.84,NNE,25,4.0,15.0,46,0.00,,,0.09,,2013-08-01 20:39:00,
2013-08-01 16:48:00,78.0,54.0,29.85,West,280,5.0,16.0,43,0.00,,,0.09,,2013-08-01 20:48:00,
2013-08-01 16:55:00,78.0,54.0,29.84,NE,38,6.0,15.0,44,0.00,,,0.08,,2013-08-01 20:55:00,
2013-08-01 17:03:00,79.0,54.0,29.84,SW,219,3.0,14.0,42,0.00,,,0.08,,2013-08-01 21:03:00,
2013-08-01 18:23:00,78.0,56.0,29.85,NNW,328,4.0,14.0,46,0.00,,,0.05,,2013-08-01 22:23:00,
2013-08-01 18:35:00,77.0,55.0,29.84,West,272,6.0,15.0,46,0.00,,,0.04,,2013-08-01 22:35:00,
2013-08-01 18:46:00,77.0,55.0,29.84,WNW,293,6.0,14.0,47,0.00,,,0.03,,2013-08-01 22:46:00,
2013-08-01 18:55:00,77.0,56.0,29.85,West,274,2.0,12.0,48,0.00,,,0.02,,2013-08-01 22:55:00,
2013-08-01 19:25:00,77.0,56.0,29.84,West,267,3.0,14.0,48,0.00,,,0.00,,2013-08-01 23:25:00,
2013-08-01 19:33:00,76.0,55.0,29.84,ENE,61,3.0,14.0,49,0.00,,,0.00,,2013-08-01 23:33:00,
2013-08-01 19:48:00,76.0,55.0,29.84,NW,312,1.0,14.0,49,0.00,,,0.00,,2013-08-01 23:48:00,
2013-08-01 19:57:00,76.0,55.0,29.84,WSW,250,2.0,14.0,49,0.00,,,0.00,,2013-08-01 23:57:00,
2013-08-01 20:09:00,76.0,55.0,29.84,NNW,343,2.0,8.0,49,0.00,,,0.00,,2013-08-02 00:09:00,
2013-08-01 20:18:00,75.0,55.0,29.84,West,262,5.0,13.0,49,0.00,,,0.00,,2013-08-02 00:18:00,
2013-08-01 20:28:00,74.0,55.0,29.84,WNW,287,1.0,10.0,51,0.00,,,0.00,,2013-08-02 00:28:00,
2013-08-01 20:38:00,74.0,55.0,29.84,WNW,303,0.0,8.0,51,0.00,,,0.00,,2013-08-02 00:38:00,
2013-08-01 20:51:00,72.0,54.0,29.84,West,279,0.0,0.0,53,0.00,,,0.00,,2013-08-02 00:51:00,
2013-08-01 20:56:00,73.0,55.0,29.84,WNW,293,1.0,8.0,53,0.00,,,0.00,,2013-08-02 00:56:00,
2013-08-01 21:05:00,72.0,54.0,29.85,West,279,0.0,7.0,53,0.00,,,0.00,,2013-08-02 01:05:00,
2013-08-01 21:16:00,72.0,54.0,29.84,West,279,0.0,0.0,53,0.00,,,0.00,,2013-08-02 01:16:00,
2013-08-01 21:28:00,72.0,54.0,29.84,West,279,0.0,0.0,53,0.00,,,0.00,,2013-08-02 01:28:00,
2013-08-01 21:39:00,72.0,54.0,29.84,West,279,0.0,0.0,53,0.00,,,0.00,,2013-08-02 01:39:00,
2013-08-01 21:47:00,72.0,54.0,29.84,West,279,0.0,0.0,53,0.00,,,0.00,,2013-08-02 01:47:00,